Regional Weather Roundup
Issued by NWS

Home | Current Version | Previous Version | Text Only | Print | Product List | Glossary Off
Versions: 1 2 3 4 5 6 7 8 9 10 11 12 13 14 15 16 17 18 19 20 21 22 23 24 25 26 27 28

000
ASUS45 KCYS 151610
RWRWY

WYOMING REGIONAL WEATHER ROUNDUP
NATIONAL WEATHER SERVICE CHEYENNE WY
1000 AM MDT TUE APR 15 2014

NOTE:  "FAIR" INDICATES FEW OR NO CLOUDS BELOW 12,000 FEET
WITH NO SIGNIFICANT WEATHER AND/OR OBSTRUCTIONS TO VISIBILITY.

WYZ001-151700-
YELLOWSTONE NATIONAL PARK

CITY           SKY/WX    TMP DP  RH WIND       PRES   REMARKS
LK YELLOWSTONE   N/A     36   9  32 VRB3      29.91F
W YELLOWSTONE  NOT AVBL

$$
WYZ002>013-054>058-071-098>099-151700-
NORTHERN WYOMING

CITY           SKY/WX    TMP DP  RH WIND       PRES   REMARKS
JACKSON        MOSUNNY   41  16  36 MISG      29.92F
CODY           PTSUNNY   48  16  27 NW10G16   29.79F
GREYBULL       CLOUDY    39  28  64 S3        29.82F
WORLAND        CLOUDY   N/A N/A N/A MISG      29.82F
SHERIDAN       PTSUNNY   56  24  29 W18       29.73F
BUFFALO        CLOUDY    52  19  27 CALM      29.77F
GILLETTE       CLOUDY    49  23  36 SW16      29.75F
HULETT         FAIR      46  21  36 SW14      29.75
NEWCASTLE      FAIR      37  21  52 S7        29.81  WCI  32

$$
WYZ014>020-022>026-101>103-151700-
CENTRAL WYOMING

CITY           SKY/WX    TMP DP  RH WIND       PRES   REMARKS
BIG PINEY      SUNNY     37  15  40 SE6       29.99F WCI  32
PINEDALE       SUNNY     34  21  60 N6        29.98F WCI  29
DUBOIS         FAIR      43   5  21 W22G33    29.85F
LANDER         PTSUNNY   45  19  35 N6        29.86S
RIVERTON       PTSUNNY   48  14  25 SW10      29.87F
CASPER         CLOUDY    40  19  43 SW26      29.86F WCI  29
DOUGLAS        CLOUDY    42  28  57 CALM      29.85F

$$
WYZ021-027>030-104>119-151700-
SOUTHERN WYOMING

CITY           SKY/WX    TMP DP  RH WIND       PRES   REMARKS
EVANSTON       MOSUNNY   41  12  30 SW13      30.03F
KEMMERER       MOSUNNY   43  12  28 W21       29.99F
FORT BRIDGER   FAIR      48  12  23 W17G28    30.02F
ROCK SPRINGS   PTSUNNY   44   6  21 W17       30.00F
DIXON          FAIR      40  20  45 S10       30.09F WCI  33
RAWLINS        CLOUDY    39  16  39 SW15G23   29.99R WCI  31
SARATOGA       CLOUDY    37  19  48 E5        30.02R WCI  34
LARAMIE        PTSUNNY   37  19  48 SW24G32   29.94S WCI  26
CHEYENNE       CLOUDY    43  19  38 VRB5      29.90F
TORRINGTON     CLOUDY    45  25  45 W12       29.86F
PINE BLUFFS    FAIR      46  23  39 SW14G22   29.91F

$$



USA.gov is the U.S. government's official web portal to all federal, state and local government web resources and services.